DELTA 1 DEB

Satellite information

Favourite Embed

Satellite Type and Status

DEBRISIN ORBIT

Key statistics

Satellite DELTA 1 DEB at a glance.

Uptime

19036

Days in orbit

Revolutions

≈ 12.6

Per day

Orbit

SSO

Sun Synchronous Orbit

Inclination

102.4

Latest

Satellite identification and parameters

Extended collection of information and parameters for DELTA 1 DEB.

Object identification

Identified? True

Debris? True

Object name: DELTA 1 DEB

International designator: 1973-086ES

Object number (NORAD): 7181

Object ID (CCSDS): 7181

Country: UNITED STATES OF AMERICA (US)

Current information (Y/N): Y

RCS size: SMALL

Orbital parameters

Period: 114.547 minutes

Inclination: 102.3678 deg

SMA: 7812.944 km

Apoapsis: 1514.248 km

Periapsis: 1355.371 km

RAAN: 117.8124 deg

Eccentricy: 0.0101676

Argument of periapsis: 82.6023 deg

Mean anomaly: 42.8244 deg

Mean motion: 12.57131349 rev/day

Mean motion (dot): 0.00000113 rev/day2

B* drag term: 0.00095070085 1/REarth

Two-line elements (TLE)

Creation date: Dec. 19, 2025, 2:08 a.m.

Reference frame: TEME

Reference center: EARTH

Epoch: Dec. 18, 2025, 8:37 p.m. UTC

TLE line 0: 0 DELTA 1 DEB

TLE line 1: 1 07181U 73086ES 25352.85930340 .00000113 00000-0 95070-3 0 9999

TLE line 2: 2 07181 102.3678 117.8124 0101676 82.6023 42.8244 12.57131349387752

Live tracking on map

Real-time ground track for satellite DELTA 1 DEB.

In-orbit conjunctions

A list of the most updated potential collisions computed for object DELTA 1 DEB.

Target Orbit TCA Probability of collision Miss distance Type
COSMOS 876 LEO 2025-11-20 12:04:00 0.001115302 153.0 (m) PAYLOAD
COSMOS 1254 LEO 2025-10-11 02:18:56 0.0002455332 148.0 (m) PAYLOAD

Associated space launch

Meteorological satellite using radiometric imaging

DELTA 1 DEB was lifted into orbit during the mission ‘Delta 0300 | NOAA 3’, on board a Delta 0300 space rocket.

The launch took place on Nov. 6, 1973, 5:02 p.m. from Space Launch Complex 2W.

For more information about the launch, click the button.

Launch to space Delta 0300 | NOAA 3
Delta 0300 | NOAA 3

Agency: N/A

Status: Launch Successful

Launch date: Nov. 6, 1973, 5:02 p.m. UTC

Rocket: Delta 0300

Launch pad: Space Launch Complex 2W

Location: Vandenberg SFB, CA, USA

...

Latest news about this satellite

There are no fresh news available about this satellite. Check back as we update our databases every day.


Newsletter sign-up

Weekly statistics, charts and insights to help you stay on top of the space industry.